Regional Weather Roundup
Issued by NWS Northern Indiana

Home | Current Version | Previous Version | Text Only | Print | Product List | Glossary Off
Versions: 1 2 3 4 5 6 7 8 9 10 11 12 13 14 15 16 17 18 19 20 21 22 23 24 25 26 27 28 29 30 31 32 33 34 35 36 37 38 39 40 41 42 43 44 45 46 47 48 49 50

000
ASUS43 KIWX 200210
RWRIWX

KIWX WEATHER ROUNDUP
NATIONAL WEATHER SERVICE NORTHERN INDIANA
1000 PM EDT SUN OCT 19 2014

NOTE: "FAIR" INDICATES FEW OR NO CLOUDS BELOW 12,000 FEET WITH NO
SIGNIFICANT WEATHER AND/OR OBSTRUCTIONS TO VISIBILITY.

* THESE STATIONS ARE NOT UNDER NWS QUALITY CONTROL. THEY ALSO MAY NOT
  REPORT WEATHER SUCH AS PRECIPITATION OR FOG.

INZ001>027-200300-
NORTHERN INDIANA

CITY           SKY/WX    TMP DP  RH WIND       PRES   REMARKS
GARY*          MOCLDY    54  43  66 S9        29.97F
VALPARAISO     CLOUDY    50  41  71 SW10      29.99F
MICHIGAN CITY* CLOUDY    50  39  66 S9        29.98F
LAPORTE*       CLOUDY    51  43  73 SW9       29.99S
KNOX*          CLOUDY    49  40  71 SW9       29.99F
SOUTH BEND     MOCLDY    50  40  68 S10       29.99F
GOSHEN         CLOUDY    50  39  66 S12       29.99F
MONTICELLO*    CLOUDY    47  42  81 SW6       30.02F
LOGANSPORT*    CLOUDY    46  39  76 SW10      30.03F
ROCHESTER*     MOCLDY    52  41  66 SW9G16    30.02S
WARSAW*        MOCLDY    48  37  66 S6        30.01F
ANGOLA*        CLEAR     46  37  71 SW5       29.99F
FORT WAYNE     CLOUDY    47  39  74 S8        30.03F
HUNTINGTON*    MOCLDY    47  39  73 CALM      30.02F
PERU/GRISSOM   MOCLDY    47  44  90 SW7       30.02F
MARION*        PTCLDY    46  38  76 S7        30.04F

$$
INZ028>050-200300-
CENTRAL INDIANA

CITY           SKY/WX    TMP DP  RH WIND       PRES   REMARKS
LAFAYETTE      MOCLDY    47  41  80 SW5       30.04F
KOKOMO*        MOCLDY    48  39  71 S9        30.03F
MUNCIE*        MOCLDY    48  39  71 S6        30.05F
INDIANAPOLIS   MOCLDY    46  40  79 SW8       30.06F

$$
MIZ043>046-050>051-056>058-064>065-071>073-077>080-200300-
SOUTHWEST LOWER MICHIGAN

CITY           SKY/WX    TMP DP  RH WIND       PRES   REMARKS
BATTLE CREEK   PTCLDY    48  38  68 S10       29.97F
BENTON HARBOR  PTCLDY    48  40  73 S7        29.96F
COLDWATER*     CLOUDY    48  38  66 S6        29.99S
HILLSDALE*     CLOUDY    48  37  66 S6        29.98F
HOLLAND        CLOUDY    49  40  71 S8        29.94F
GRAND RAPIDS   MOCLDY    48  38  68 S10       29.94F
KALAMAZOO      PTCLDY    47  39  74 S10       29.97F
STURGIS*       MOCLDY    46  39  76 S7        29.98F
THREE RIVERS*  FAIR      47  40  74 S9        29.98F

$$
OHZ001>008-015>018-024>025-200300-
NORTHWEST OHIO

CITY           SKY/WX    TMP DP  RH WIND       PRES   REMARKS
WAUSEON*       FAIR      48  36  61 S7        30.01F
DEFIANCE       CLOUDY    48  37  65 S6        30.02F
FINDLAY        CLOUDY    44  35  70 S7        30.03F
TOLEDO EXPRESS CLOUDY    45  34  65 S5        30.01F
TOLEDO METCALF CLOUDY    45  34  65 S6        30.03F
LIMA           MOCLDY    49  33  54 S7        30.04F

$$
AND FOR LAKE MICHIGAN COASTAL AND OPEN LAKE BUOY OBSERVATIONS

STATION/POSITION TEMP    WIND        PRES    VSBY  WAVE
                 AIR SEA DIR/SP/G                  HT/PER
                 (F)     (DEG/KT/KT) (MB)    (MI)  (FT/S)
CALUMET HARBOR    53     190/ 11/ 14 1013.2F
MICHIGAN CITY     52     170/ 12/ 14   N/A
SAINT JOSEPH      50                 1015.2R
SOUTH LAKE BUOY   54 55  200/ 21/ 27 1012.5F         5/ 5

$$
&&



USA.gov is the U.S. government's official web portal to all federal, state and local government web resources and services.